KLM1317 EHAM-EPWA

Flight info

Callsign KLM1317
Flight time 1h 30m
Altitude 37000
Route ARNEM L620 SUVOX Z718 OSNAD DCT HLZ DCT SUBIX DCT OBOKU DCT DOSIX DCT BIMPA
Aircraft E195/M-SDE3GILORVW/S

Departure

Time 2026-05-06 17:47
Airport Amsterdam Airport Schiphol (EHAM)

Arrival

Time 2026-05-06 19:17
Airport Warsaw Chopin Airport (EPWA)
Time Latitude Longitude Altitude Speed Heading
2026-05-06 17:21 52.30363 4.76180 -5 ft 0 kts 57°
2026-05-06 17:37 52.30363 4.76181 -5 ft 0 kts 57°
2026-05-06 17:38 52.30358 4.76168 -5 ft 2 kts 57°
2026-05-06 17:38 52.30350 4.76147 -4 ft 2 kts 65°
2026-05-06 17:38 52.30349 4.76124 -4 ft 2 kts 110°
2026-05-06 17:38 52.30356 4.76106 -4 ft 0 kts 147°
2026-05-06 17:39 52.30359 4.76103 -4 ft 0 kts 148°
2026-05-06 17:41 52.30358 4.76104 -4 ft 2 kts 148°
2026-05-06 17:41 52.30299 4.76165 -5 ft 14 kts 147°
2026-05-06 17:42 52.30207 4.76244 -4 ft 15 kts 189°
2026-05-06 17:42 52.30127 4.76082 -4 ft 22 kts 238°
2026-05-06 17:42 52.30043 4.75863 -4 ft 23 kts 238°
2026-05-06 17:42 52.29955 4.75635 -5 ft 24 kts 238°
2026-05-06 17:43 52.29863 4.75397 -5 ft 25 kts 237°
2026-05-06 17:43 52.29868 4.75142 -5 ft 24 kts 309°
2026-05-06 17:43 52.29981 4.74936 -4 ft 24 kts 311°
2026-05-06 17:43 52.30097 4.74720 -4 ft 25 kts 309°
2026-05-06 17:44 52.30175 4.74574 -4 ft 26 kts 312°
2026-05-06 17:44 52.30291 4.74360 -4 ft 24 kts 310°
2026-05-06 17:44 52.30302 4.74137 -4 ft 3 kts 274°
2026-05-06 17:44 52.30313 4.74107 -4 ft 5 kts 301°
2026-05-06 17:45 52.30300 4.74006 -4 ft 10 kts 217°
2026-05-06 17:45 52.30261 4.73959 -4 ft 11 kts 215°
2026-05-06 17:45 52.30230 4.73924 -4 ft 0 kts 214°
2026-05-06 17:45 52.30224 4.73917 -4 ft 4 kts 214°
2026-05-06 17:46 52.30188 4.73821 -4 ft 15 kts 272°
2026-05-06 17:46 52.30290 4.73739 -4 ft 42 kts
2026-05-06 17:46 52.30595 4.73766 -4 ft 89 kts
2026-05-06 17:46 52.31776 4.73878 106 ft 151 kts
2026-05-06 17:47 52.32874 4.73986 538 ft 168 kts
2026-05-06 17:47 52.33971 4.74219 1560 ft 158 kts 22°
2026-05-06 17:47 52.34655 4.74672 2021 ft 166 kts 26°
2026-05-06 17:47 52.36172 4.75753 2856 ft 190 kts 26°
2026-05-06 17:48 52.37406 4.76640 3612 ft 200 kts 27°
2026-05-06 17:48 52.38476 4.78069 4425 ft 205 kts 45°
2026-05-06 17:48 52.39465 4.79716 5274 ft 208 kts 45°
2026-05-06 17:48 52.40475 4.81406 6071 ft 214 kts 45°
2026-05-06 17:49 52.41536 4.83186 6698 ft 229 kts 45°
2026-05-06 17:49 52.42179 4.84617 6943 ft 249 kts 66°
2026-05-06 17:49 52.42427 4.88607 7673 ft 279 kts 89°
2026-05-06 17:49 52.42412 4.91782 8617 ft 285 kts 88°
2026-05-06 17:50 52.42411 4.95015 9605 ft 287 kts 88°
2026-05-06 17:50 52.42312 4.97138 10184 ft 291 kts 103°
2026-05-06 17:50 52.40794 5.00863 11065 ft 310 kts 143°
2026-05-06 17:50 52.39604 5.02221 11397 ft 322 kts 145°
2026-05-06 17:51 52.37699 5.04371 11866 ft 340 kts 145°
2026-05-06 17:51 52.35722 5.06633 12406 ft 355 kts 145°
2026-05-06 17:51 52.33331 5.10357 13364 ft 365 kts 120°
2026-05-06 17:51 52.32316 5.14137 14221 ft 367 kts 110°
2026-05-06 17:52 52.31694 5.16742 14831 ft 368 kts 110°
2026-05-06 17:52 52.30776 5.20592 15687 ft 370 kts 110°
2026-05-06 17:52 52.29830 5.24563 16563 ft 374 kts 111°
2026-05-06 17:52 52.28562 5.29875 17610 ft 380 kts 111°
2026-05-06 17:53 52.27600 5.33898 18367 ft 384 kts 111°
2026-05-06 17:53 52.26960 5.36569 18866 ft 387 kts 111°
2026-05-06 17:53 52.25973 5.40686 19618 ft 391 kts 111°
2026-05-06 17:53 52.24987 5.44788 20333 ft 396 kts 111°
2026-05-06 17:54 52.23653 5.50326 21277 ft 401 kts 111°
2026-05-06 17:54 52.22946 5.53256 21766 ft 404 kts 111°
2026-05-06 17:54 52.21574 5.58927 22679 ft 409 kts 112°
2026-05-06 17:54 52.20528 5.63244 23328 ft 413 kts 112°
2026-05-06 17:55 52.19468 5.67609 23978 ft 417 kts 113°
2026-05-06 17:55 52.18380 5.72080 24655 ft 421 kts 113°
2026-05-06 17:55 52.17660 5.75033 25097 ft 423 kts 113°
2026-05-06 17:55 52.16567 5.79507 25751 ft 427 kts 113°
2026-05-06 17:56 52.15099 5.85506 26613 ft 431 kts 113°
2026-05-06 17:56 52.14355 5.88538 27032 ft 434 kts 112°
2026-05-06 17:56 52.13247 5.93048 27657 ft 437 kts 112°
2026-05-06 17:56 52.12108 5.97676 28257 ft 441 kts 112°
2026-05-06 17:57 52.10947 6.02381 28867 ft 445 kts 113°
2026-05-06 17:57 52.09573 6.08681 29651 ft 450 kts 105°
2026-05-06 17:57 52.09165 6.12011 30035 ft 453 kts 100°
2026-05-06 17:57 52.08667 6.17031 30605 ft 456 kts 100°
2026-05-06 17:58 52.08188 6.21703 31104 ft 460 kts 100°
2026-05-06 17:58 52.07657 6.26807 31609 ft 463 kts 100°
2026-05-06 17:58 52.07113 6.32003 32117 ft 466 kts 101°
2026-05-06 17:58 52.06569 6.37177 32674 ft 466 kts 101°
2026-05-06 17:59 52.06026 6.42311 33273 ft 466 kts 101°
2026-05-06 17:59 52.05289 6.49240 34016 ft 464 kts 101°
2026-05-06 17:59 52.04925 6.52658 34351 ft 463 kts 101°
2026-05-06 17:59 52.04196 6.59457 34815 ft 455 kts 101°
2026-05-06 18:00 52.03276 6.67985 34881 ft 469 kts 101°
2026-05-06 18:00 52.02091 6.78507 34871 ft 479 kts 105°
2026-05-06 18:01 52.00402 6.88915 34866 ft 478 kts 106°
2026-05-06 18:01 51.98748 6.99344 34865 ft 478 kts 106°
2026-05-06 18:02 51.97476 7.09939 34851 ft 480 kts 94°
2026-05-06 18:02 51.97941 7.20681 34877 ft 483 kts 77°
2026-05-06 18:03 52.00421 7.30797 34886 ft 485 kts 61°
2026-05-06 18:03 52.03296 7.42687 34883 ft 485 kts 72°
2026-05-06 18:04 52.05023 7.51314 34875 ft 486 kts 72°
2026-05-06 18:04 52.07079 7.61719 34880 ft 485 kts 72°
2026-05-06 18:05 52.09088 7.71947 34876 ft 486 kts 73°
2026-05-06 18:05 52.11457 7.84075 34871 ft 486 kts 73°
2026-05-06 18:06 52.13152 7.92801 34859 ft 487 kts 73°
2026-05-06 18:06 52.15178 8.03287 34857 ft 487 kts 73°
2026-05-06 18:07 52.17202 8.13814 34859 ft 487 kts 73°
2026-05-06 18:07 52.19207 8.24304 34843 ft 487 kts 73°
2026-05-06 18:08 52.20503 8.35076 34857 ft 486 kts 84°
2026-05-06 18:08 52.21328 8.46026 34849 ft 486 kts 84°
2026-05-06 18:09 52.22132 8.56908 34853 ft 486 kts 84°
2026-05-06 18:09 52.22926 8.67781 34845 ft 485 kts 85°
2026-05-06 18:10 52.23713 8.78721 34841 ft 486 kts 85°
2026-05-06 18:10 52.24485 8.89570 34839 ft 486 kts 85°
2026-05-06 18:11 52.25255 9.00554 34836 ft 487 kts 85°
2026-05-06 18:11 52.26017 9.11563 34839 ft 488 kts 85°
2026-05-06 18:12 52.26771 9.22611 34835 ft 489 kts 85°
2026-05-06 18:12 52.27510 9.33597 34826 ft 490 kts 85°
2026-05-06 18:13 52.28245 9.44680 34827 ft 490 kts 85°
2026-05-06 18:13 52.28968 9.55736 34816 ft 491 kts 85°
2026-05-06 18:14 52.29676 9.66728 34813 ft 491 kts 86°
2026-05-06 18:14 52.30379 9.77805 34810 ft 490 kts 86°
2026-05-06 18:15 52.31073 9.88916 34812 ft 491 kts 86°
2026-05-06 18:15 52.31868 10.01844 34808 ft 492 kts 86°
2026-05-06 18:16 52.32426 10.11067 34813 ft 492 kts 86°
2026-05-06 18:16 52.33203 10.24104 34813 ft 493 kts 86°
2026-05-06 18:17 52.33744 10.33352 34808 ft 493 kts 86°
2026-05-06 18:17 52.34388 10.44493 34816 ft 493 kts 86°
2026-05-06 18:18 52.35018 10.55594 34817 ft 493 kts 86°
2026-05-06 18:18 52.35641 10.66771 34814 ft 493 kts 87°
2026-05-06 18:19 52.36253 10.77922 34809 ft 493 kts 88°
2026-05-06 18:19 52.36532 10.89094 34812 ft 492 kts 91°
2026-05-06 18:20 52.36742 11.00209 34811 ft 492 kts 91°
2026-05-06 18:20 52.36945 11.11458 34815 ft 493 kts 91°
2026-05-06 18:21 52.37136 11.22619 34812 ft 493 kts 91°
2026-05-06 18:21 52.37347 11.35663 34814 ft 494 kts 91°
2026-05-06 18:22 52.37489 11.45057 34814 ft 495 kts 91°
2026-05-06 18:22 52.37650 11.56283 34821 ft 496 kts 91°
2026-05-06 18:23 52.37800 11.67500 34808 ft 496 kts 92°
2026-05-06 18:23 52.37962 11.80666 34811 ft 496 kts 92°
2026-05-06 18:24 52.38069 11.90089 34819 ft 497 kts 92°
2026-05-06 18:24 52.38187 12.01343 34825 ft 497 kts 92°
2026-05-06 18:25 52.38295 12.12650 34822 ft 497 kts 92°
2026-05-06 18:25 52.38392 12.23892 34816 ft 497 kts 92°
2026-05-06 18:26 52.38491 12.37094 34815 ft 497 kts 92°
2026-05-06 18:26 52.38553 12.46476 34804 ft 499 kts 92°
2026-05-06 18:27 52.38618 12.57784 34809 ft 498 kts 92°
2026-05-06 18:27 52.38672 12.69128 34803 ft 498 kts 93°
2026-05-06 18:28 52.38715 12.80451 34799 ft 498 kts 93°
2026-05-06 18:28 52.38748 12.91743 34805 ft 499 kts 93°
2026-05-06 18:29 52.38770 13.03079 34797 ft 500 kts 93°
2026-05-06 18:29 52.38780 13.14429 34796 ft 499 kts 94°
2026-05-06 18:30 52.38780 13.25827 34803 ft 500 kts 94°
2026-05-06 18:30 52.38769 13.37186 34804 ft 501 kts 94°
2026-05-06 18:31 52.38747 13.48485 34810 ft 500 kts 94°
2026-05-06 18:31 52.38715 13.59851 34813 ft 502 kts 94°
2026-05-06 18:32 52.38671 13.71330 34807 ft 500 kts 94°
2026-05-06 18:32 52.38617 13.82615 34804 ft 501 kts 94°
2026-05-06 18:33 52.38551 13.94030 34754 ft 501 kts 94°
2026-05-06 18:33 52.38460 14.07373 34795 ft 503 kts 94°
2026-05-06 18:34 52.38387 14.16829 34790 ft 503 kts 95°
2026-05-06 18:34 52.38287 14.28274 34810 ft 503 kts 95°
2026-05-06 18:35 52.38177 14.39749 34804 ft 503 kts 95°
2026-05-06 18:35 52.38034 14.53120 34803 ft 505 kts 95°
2026-05-06 18:36 52.37880 14.62719 34819 ft 503 kts 96°
2026-05-06 18:36 52.37607 14.74108 34811 ft 503 kts 97°
2026-05-06 18:37 52.37325 14.85528 34806 ft 503 kts 97°
2026-05-06 18:37 52.37034 14.96884 34802 ft 504 kts 97°
2026-05-06 18:38 52.36731 15.08304 34803 ft 502 kts 97°
2026-05-06 18:38 52.36415 15.19751 34808 ft 503 kts 97°
2026-05-06 18:39 52.36089 15.31196 34794 ft 505 kts 97°
2026-05-06 18:40 52.35579 15.48368 34786 ft 506 kts 97°
2026-05-06 18:40 52.35225 15.59794 34789 ft 508 kts 97°
2026-05-06 18:41 52.34858 15.71319 34792 ft 506 kts 98°
2026-05-06 18:41 52.34478 15.82843 34782 ft 506 kts 97°
2026-05-06 18:42 52.34089 15.94344 34789 ft 508 kts 97°
2026-05-06 18:42 52.33689 16.05810 34777 ft 507 kts 97°
2026-05-06 18:43 52.33276 16.17342 34773 ft 507 kts 97°
2026-05-06 18:43 52.32854 16.28827 34769 ft 507 kts 97°
2026-05-06 18:44 52.32421 16.40287 34774 ft 507 kts 97°
2026-05-06 18:44 52.31974 16.51811 34781 ft 508 kts 97°
2026-05-06 18:45 52.31517 16.63325 34781 ft 508 kts 97°
2026-05-06 18:45 52.31049 16.74810 34776 ft 508 kts 98°
2026-05-06 18:46 52.30965 16.86344 34782 ft 514 kts 86°
2026-05-06 18:46 52.31554 16.97971 34786 ft 512 kts 90°
2026-05-06 18:47 52.31942 17.09579 34784 ft 511 kts 90°
2026-05-06 18:47 52.32306 17.21172 34780 ft 511 kts 90°
2026-05-06 18:48 52.32658 17.32759 34778 ft 511 kts 90°
2026-05-06 18:48 52.32997 17.44295 34774 ft 511 kts 90°
2026-05-06 18:49 52.33327 17.55892 34768 ft 511 kts 90°
2026-05-06 18:49 52.33645 17.67460 34767 ft 509 kts 91°
2026-05-06 18:50 52.33952 17.79056 34758 ft 509 kts 91°
2026-05-06 18:50 52.34246 17.90629 34765 ft 509 kts 91°
2026-05-06 18:50 52.34388 17.96271 34747 ft 491 kts 91°
2026-05-06 18:51 52.34522 18.01802 34747 ft 483 kts 92°
2026-05-06 18:51 52.34778 18.12749 34730 ft 487 kts 91°
2026-05-06 18:51 52.34946 18.20081 34024 ft 487 kts 92°
2026-05-06 18:52 52.35029 18.23789 33665 ft 485 kts 92°
2026-05-06 18:52 52.35143 18.29010 33162 ft 483 kts 92°
2026-05-06 18:52 52.35263 18.34536 32621 ft 481 kts 92°
2026-05-06 18:52 52.35377 18.39977 32095 ft 482 kts 92°
2026-05-06 18:53 52.35489 18.45426 31559 ft 478 kts 92°
2026-05-06 18:53 52.35597 18.50781 31041 ft 475 kts 92°
2026-05-06 18:53 52.35712 18.56643 30464 ft 469 kts 92°
2026-05-06 18:53 52.35948 18.69154 29244 ft 460 kts 93°
2026-05-06 18:54 52.35963 18.69979 29164 ft 459 kts 93°
2026-05-06 18:54 52.36088 18.76911 28494 ft 451 kts 93°
2026-05-06 18:54 52.36177 18.82034 28001 ft 449 kts 93°
2026-05-06 18:55 52.36264 18.87120 27505 ft 448 kts 92°
2026-05-06 18:55 52.36349 18.92234 27005 ft 443 kts 92°
2026-05-06 18:55 52.36430 18.97262 26517 ft 441 kts 92°
2026-05-06 18:55 52.36533 19.03872 25876 ft 435 kts 93°
2026-05-06 18:56 52.36395 19.07081 25859 ft 425 kts 106°
2026-05-06 18:56 52.35896 19.11842 25889 ft 434 kts 94°
2026-05-06 18:56 52.35875 19.16827 25927 ft 434 kts 99°
2026-05-06 18:56 52.35614 19.21737 25945 ft 436 kts 98°
2026-05-06 18:57 52.35400 19.26622 25945 ft 436 kts 97°
2026-05-06 18:57 52.35196 19.31595 25939 ft 438 kts 97°
2026-05-06 18:57 52.34995 19.36550 25670 ft 439 kts 97°
2026-05-06 18:57 52.34727 19.43155 25038 ft 435 kts 97°
2026-05-06 18:58 52.34595 19.46371 24714 ft 431 kts 97°
2026-05-06 18:58 52.34395 19.51216 24246 ft 426 kts 97°
2026-05-06 18:58 52.34195 19.56009 23783 ft 425 kts 97°
2026-05-06 18:58 52.33993 19.60797 23323 ft 422 kts 97°
2026-05-06 18:59 52.33789 19.65579 22847 ft 418 kts 98°
2026-05-06 18:59 52.33586 19.70319 22385 ft 414 kts 98°
2026-05-06 18:59 52.33384 19.74963 21935 ft 412 kts 98°
2026-05-06 18:59 52.33181 19.79616 21481 ft 407 kts 98°
2026-05-06 19:00 52.32978 19.84204 21037 ft 404 kts 98°
2026-05-06 19:00 52.32774 19.88790 20600 ft 403 kts 98°
2026-05-06 19:00 52.32571 19.93286 20156 ft 401 kts 98°
2026-05-06 19:00 52.32366 19.97817 19728 ft 398 kts 98°
2026-05-06 19:01 52.32162 20.02271 19288 ft 396 kts 98°
2026-05-06 19:01 52.31956 20.06750 18847 ft 393 kts 98°
2026-05-06 19:01 52.31751 20.11161 18420 ft 391 kts 98°
2026-05-06 19:01 52.31475 20.17031 17836 ft 388 kts 98°
2026-05-06 19:02 52.31338 20.19946 17561 ft 386 kts 98°
2026-05-06 19:02 52.31130 20.24316 17123 ft 383 kts 98°
2026-05-06 19:02 52.30923 20.28610 16710 ft 381 kts 98°
2026-05-06 19:02 52.30714 20.32935 16276 ft 378 kts 98°
2026-05-06 19:03 52.30508 20.37175 15864 ft 376 kts 98°
2026-05-06 19:03 52.30301 20.41384 15467 ft 373 kts 98°
2026-05-06 19:03 52.30092 20.45628 15033 ft 370 kts 98°
2026-05-06 19:03 52.29816 20.51157 14483 ft 367 kts 97°
2026-05-06 19:04 52.29680 20.53870 14248 ft 365 kts 97°
2026-05-06 19:04 52.29471 20.58006 13846 ft 362 kts 97°
2026-05-06 19:04 52.29265 20.62051 13451 ft 361 kts 97°
2026-05-06 19:04 52.29058 20.66106 13059 ft 358 kts 98°
2026-05-06 19:05 52.28855 20.70039 12677 ft 355 kts 98°
2026-05-06 19:05 52.28647 20.74042 12288 ft 353 kts 98°
2026-05-06 19:05 52.28441 20.77985 11898 ft 351 kts 98°
2026-05-06 19:05 52.28232 20.81978 11511 ft 349 kts 98°
2026-05-06 19:06 52.28026 20.85866 11130 ft 341 kts 98°
2026-05-06 19:06 52.27823 20.89688 10749 ft 332 kts 98°
2026-05-06 19:06 52.27625 20.93398 10490 ft 319 kts 99°
2026-05-06 19:06 52.27434 20.96941 10244 ft 308 kts 99°
2026-05-06 19:07 52.27166 21.00348 9920 ft 296 kts 113°
2026-05-06 19:07 52.26124 21.02997 9649 ft 273 kts 143°
2026-05-06 19:07 52.24588 21.04751 9288 ft 263 kts 153°
2026-05-06 19:07 52.23050 21.06235 8985 ft 257 kts 155°
2026-05-06 19:08 52.21494 21.07654 8690 ft 251 kts 156°
2026-05-06 19:08 52.19987 21.08991 8416 ft 245 kts 156°
2026-05-06 19:08 52.18483 21.10306 8145 ft 241 kts 156°
2026-05-06 19:08 52.17016 21.11577 7789 ft 243 kts 156°
2026-05-06 19:09 52.15532 21.12860 7442 ft 241 kts 156°
2026-05-06 19:09 52.14055 21.14152 7093 ft 239 kts 156°
2026-05-06 19:09 52.12102 21.15864 6624 ft 237 kts 156°
2026-05-06 19:09 52.11137 21.16709 6390 ft 237 kts 156°
2026-05-06 19:10 52.09703 21.17964 6066 ft 236 kts 155°
2026-05-06 19:10 52.07776 21.19647 5606 ft 236 kts 155°
2026-05-06 19:10 52.06811 21.20490 5363 ft 236 kts 155°
2026-05-06 19:10 52.05367 21.21750 5001 ft 235 kts 154°
2026-05-06 19:11 52.03930 21.23004 4655 ft 235 kts 154°
2026-05-06 19:11 52.02453 21.24120 4275 ft 232 kts 172°
2026-05-06 19:11 52.00925 21.23728 4051 ft 223 kts 213°
2026-05-06 19:11 51.99627 21.21190 4031 ft 225 kts 238°
2026-05-06 19:12 51.99083 21.19728 4003 ft 226 kts 239°
2026-05-06 19:12 51.98296 21.17518 3865 ft 226 kts 240°
2026-05-06 19:12 51.97831 21.15122 3725 ft 228 kts 272°
2026-05-06 19:12 51.98436 21.12780 3704 ft 232 kts 311°
2026-05-06 19:13 51.99798 21.11323 3681 ft 237 kts 328°
2026-05-06 19:13 52.01216 21.10057 3448 ft 230 kts 329°
2026-05-06 19:13 52.02604 21.08844 3160 ft 223 kts 329°
2026-05-06 19:13 52.03963 21.07665 2863 ft 217 kts 329°
2026-05-06 19:14 52.05255 21.06547 2582 ft 202 kts 329°
2026-05-06 19:14 52.06430 21.05528 2322 ft 186 kts 329°
2026-05-06 19:14 52.07526 21.04577 2092 ft 170 kts 329°
2026-05-06 19:14 52.08538 21.03698 1864 ft 161 kts 329°
2026-05-06 19:15 52.09508 21.02856 1703 ft 152 kts 329°
2026-05-06 19:15 52.10395 21.02087 1493 ft 138 kts 329°
2026-05-06 19:15 52.11217 21.01372 1298 ft 131 kts 329°
2026-05-06 19:15 52.12282 21.00433 1075 ft 129 kts 330°
2026-05-06 19:16 52.12805 20.99985 966 ft 129 kts 330°
2026-05-06 19:16 52.13597 20.99290 809 ft 128 kts 330°
2026-05-06 19:16 52.14391 20.98598 628 ft 129 kts 331°
2026-05-06 19:16 52.15177 20.97928 452 ft 128 kts 331°
2026-05-06 19:17 52.15929 20.97267 353 ft 107 kts 333°
2026-05-06 19:17 52.16447 20.96822 351 ft 65 kts 331°
2026-05-06 19:17 52.16705 20.96596 351 ft 34 kts 332°
2026-05-06 19:17 52.16890 20.96515 352 ft 19 kts 354°
2026-05-06 19:18 52.17022 20.96516 352 ft 9 kts
2026-05-06 19:18 52.17091 20.96577 352 ft 17 kts 63°
2026-05-06 19:18 52.17145 20.96742 351 ft 0 kts 60°
2026-05-06 19:18 52.17152 20.96761 351 ft 4 kts 60°
2026-05-06 19:19 52.17142 20.96858 351 ft 13 kts 144°
2026-05-06 19:19 52.17050 20.96938 351 ft 15 kts 152°
2026-05-06 19:19 52.17033 20.97007 351 ft 9 kts 66°
2026-05-06 19:19 52.17048 20.97103 351 ft 0 kts 77°
2026-05-06 19:20 52.17048 20.97106 351 ft 0 kts 77°